Zurück zum Katalog

COSMOS 2251 DEB

AktivLEO
NORAD 34732·DEBRIS·🇷🇺 Russia

Gestartet Jun 16, 1993 von Plesetsk Cosmodrome

Loading…

Nächste Überflüge (nächste 24 Stunden)

TLE

AktuellSource: Space-Track

Epoche: Sep 14, 2026, 13:51 UTC

1 34732U 93036ZA  26257.57722115  .00000214  00000-0  65059-4 0  9998
2 34732  74.0443 297.6334 0039009  16.5223 136.0652 14.47520874921341

Verfolge COSMOS 2251 DEB in Echtzeit mit AllMySat

Download on the App Store